chang-sha , China , ASIA

  • Saturday
    January 20

    Overcast  Light rain

    48 °F  43 °F

    Northwest  Northwest

        

  • Sunday
    January 21

    Light rain  Overcast

    46 °F  39 °F

    Northwest  Northwest

        

  • Monday
    January 22

    Cloudy  Cloudy

    54 °F  41 °F

    Northwest  Northwest

        

  • Tuesday
    January 23

    Cloudy  Light rain

    52 °F  41 °F

    Northwest  Northwest

        

  • Wednesday
    January 24

    Light rain  Light rain

    41 °F  34 °F

    Northwest  Northwest

    3~4L   3~4L 

  • Thursday
    January 25

    Sleet  Sleet

    34 °F  28 °F

    Northwest  Northwest

    3~4L   3~4L 

  • Friday
    January 26

    Sleet  Sleet

    32 °F  28 °F

    Northwest  Northwest

    3~4L   3~4L 

Date   Weather Temperature Humidity Total_rain Visibility Wind
11:00 Overcast 47°F 95.4% 0mm 4km Northwest  2.1m/s
14:00 Overcast 48°F 91.2% 0mm 4km Northwest  2.1m/s
17:00 Overcast 48°F 89.8% 0mm 4km Northwest  1.8m/s
20:00 Overcast 44°F 91.3% 0mm 4km Northwest  1.4m/s
23:00 Light rain 44°F 96% 0.3mm 8km Northwest  0.6m/s
02:00 Light rain 44°F 96.9% 0.5mm 4km Northwest  1.5m/s
05:00 Light rain 43°F 97.9% 0.2mm 0.8km Northeast  2.0m/s
08:00 Light rain 44°F 85.2% 0.6mm 0.8km Northwest  1.6m/s
11:00 Light rain 46°F 97.6% 1.1mm 4km Northwest  3.0m/s
14:00 Light rain 44°F 97.5% 2.2mm 4km Northwest  3.3m/s
17:00 Moderate rain 44°F 96.3% 3.3mm 4km Northwest  2.4m/s
20:00 Light rain 42°F 95.9% 0.2mm 4km Northwest  0.6m/s
23:00 Overcast 42°F 96.6% 0mm 8km Southwest  0.5m/s
02:00 Overcast 42°F 98.1% 0mm 0.4km Southwest  1.3m/s
05:00 Overcast 40°F 99% 0mm 0.8km Southeast  0.9m/s
08:00 Overcast 40°F 99% 0mm 4km Southeast  0.9m/s
11:00 Cloudy 46°F 71.6% 0mm 4km Southeast  1.9m/s
14:00 Cloudy 53°F 76.3% 0mm 8km Southeast  2.4m/s
17:00 Cloudy 53°F 81.4% 0mm 12km Southeast  0.3m/s
20:00 Cloudy 50°F 85.4% 0mm 8km Northeast  0.3m/s
23:00 Cloudy 45°F 92.6% 0mm 8km Northeast  2.0m/s
02:00 Cloudy 44°F 97.6% 0mm 4km Northeast  0.9m/s
05:00 Cloudy 43°F 94.6% 0mm 0.2km Northeast  1.3m/s
08:00 Cloudy 41°F 76% 0mm 4km Northeast  1.8m/s
11:00 Cloudy 48°F 79.7% 0mm 4km Northeast  2.2m/s
14:00 Cloudy 50°F 82.5% 0mm 4km Northeast  3.3m/s
17:00 Cloudy 51°F 86.6% 0mm 4km Northeast  3.3m/s
20:00 Cloudy 50°F 90.3% 0mm 4km Northeast  3.4m/s
23:00 Light rain 45°F 91.5% 0.1mm 4km Northeast  2.2m/s
02:00 Light rain 44°F 95% 0.1mm 4km Northeast  2.7m/s
05:00 Light rain 42°F 92.5% 0.1mm 0.8km Northeast  2.8m/s
08:00 Light rain 41°F 80.5% 0.2mm 0.8km Northeast  3.0m/s
11:00 Light rain 40°F 88.3% 0.1mm 4km Northeast  3.2m/s
14:00 Light rain 41°F 91.9% 0.2mm 4km Northeast  2.6m/s
17:00 Sleet 34°F 92.2% 0.4mm 4km Northeast  2.6m/s
20:00 Light rain 39°F 94.3% 0.3mm 4km Northeast  2.6m/s
23:00 Light rain 40°F 97% 2.2mm 12km Northwest  2.3m/s
02:00 Light rain 40°F 98.2% 1.5mm 0.2km Northeast  3.2m/s
05:00 Light rain 39°F 96.8% 2.2mm 0.8km Northwest  3.0m/s
08:00 Light rain 37°F 84.6% 2.1mm 0.8km Northeast  3.3m/s
11:00 Sleet 33°F 92.8% 1.5mm 4km Northwest  3.7m/s
14:00 Sleet 29°F 98.4% 2.6mm 4km Northeast  2.9m/s
17:00 Sleet 29°F 98.4% 1.9mm 4km Northwest  2.3m/s
20:00 Sleet 29°F 98.5% 2.2mm 4km Northwest  1.9m/s
23:00 Sleet 28°F 98.6% 3.3mm 8km Northwest  2.1m/s
02:00 Sleet 28°F 99.7% 4.8mm 4km Northwest  2.6m/s
05:00 Sleet 28°F 98.4% 1.2mm 0.8km Northwest  2.4m/s
08:00 Sleet 28°F 92.8% 4.8mm 4km Northwest  2.6m/s
11:00 Sleet 31°F 91.6% 0.7mm 4km Northwest  3.8m/s
14:00 Sleet 32°F 95.1% 1.5mm 4km Northeast  2.2m/s
17:00 Sleet 31°F 96.5% 0.4mm 4km Northwest  2.1m/s
20:00 Sleet 30°F 96.6% 7.9mm 4km Northwest  2.5m/s
23:00 Sleet 28°F 96.8% 0.5mm 12km Northwest  1.9m/s
02:00 Sleet 28°F 97.1% 1.9mm 0.8km Northwest  1.3m/s
05:00 Sleet 28°F 97.3% 2.7mm 0.4km Northwest  1.5m/s